Location: Votelez
(50.0000°N, 15.0000°E)
Time: 03:44:20
(UTC+01:00)

Tiangong - Visible Passes

Search period start: 18 February 2026 00:00
Search period end: 28 February 2026 00:00
Orbit: 385 x 391 km, 41.5° (Epoch: 17 February)

Date Brightness Start Highest point End Pass type
(mag) Time Alt. Az. Time Alt. Az. Time Alt. Az.
18 Feb 0.3 18:17:17 10° SW 18:19:25 17° S 18:21:33 10° SE visible
19 Feb 0.7 18:56:06 10° SW 18:57:15 11° SSW 18:58:24 10° S visible
20 Feb 0.6 17:57:04 10° SW 17:58:53 14° SSW 18:00:42 10° SSE visible
